Location: Unspecified
(44.4377°N, 88.0525°W)
Time: 11:47:24
(UTC-06:00)

Cosmos 2058 - Visible Passes

Search period start: 18 January 2021 00:00
Search period end: 28 January 2021 00:00
Orbit: 562 x 583 km, 82.5° (Epoch: 17 January)

Date Brightness Start Highest point End Pass type
(mag) Time Alt. Az. Time Alt. Az. Time Alt. Az.
23 Jan 5.9 05:51:31 10° NE 05:53:07 12° ENE 05:54:43 10° E visible
24 Jan 5.8 05:53:34 10° NNE 05:56:01 15° ENE 05:58:28 10° ESE visible
25 Jan 5.6 05:55:54 10° NNE 05:58:54 19° ENE 06:01:53 10° ESE visible
26 Jan 5.2 05:58:22 10° NNE 06:01:46 24° ENE 06:05:08 10° SE visible
27 Jan 4.8 06:00:56 10° N 06:04:37 31° ENE 06:08:16 10° SE visible
